Location: McCall
(45.0000°N, 116.0000°W)
Time: 04:48:08
(UTC-07:00)

Saudisat 1A - Visible Passes

Search period start: 27 February 2017 00:00
Search period end: 09 March 2017 00:00
Orbit: 569 x 623 km, 64.6° (Epoch: 26 February)

Date Brightness Start Highest point End Pass type
(mag) Time Alt. Az. Time Alt. Az. Time Alt. Az.
27 Feb 9.0 20:30:33 10° NNW 20:33:58 33° NNE 20:33:58 33° NNE visible
27 Feb 11.1 22:10:08 10° NW 22:10:38 13° WNW 22:10:38 13° WNW visible
28 Feb 10.1 19:02:19 10° N 19:04:27 13° NNE 19:06:33 10° ENE visible
28 Feb 8.5 20:40:26 10° NNW 20:44:07 50° N 20:44:07 50° N visible
01 Mar 9.7 19:11:46 10° N 19:14:52 18° NE 19:17:41 11° ENE visible
01 Mar 8.2 20:50:26 10° NW 20:54:22 68° NW 20:54:22 68° NW visible
02 Mar 9.2 19:21:26 10° NNW 19:25:12 26° NE 19:28:00 14° E visible
02 Mar 8.8 21:00:34 10° NW 21:04:42 48° WSW 21:04:42 48° WSW visible
03 Mar 8.6 19:31:13 10° NNW 19:35:26 39° NE 19:38:28 17° ESE visible
03 Mar 9.7 21:10:57 10° WNW 21:14:43 28° WSW 21:15:10 27° SW visible
04 Mar 8.0 19:41:07 10° NNW 19:45:34 64° NE 19:49:04 16° SE visible
04 Mar 10.5 21:21:47 10° WNW 21:24:30 16° WSW 21:25:47 14° SW visible
05 Mar 8.2 19:51:09 10° NW 19:55:36 75° WSW 19:59:50 11° SSE visible
06 Mar 9.2 20:01:20 10° NW 20:05:32 42° WSW 20:09:39 10° S visible
07 Mar 10.2 20:11:46 10° WNW 20:15:22 24° WSW 20:18:54 10° SSW visible
08 Mar 10.9 20:22:48 10° WNW 20:25:06 14° WSW 20:27:24 10° SW visible
